Вернуться в каталог

THORAD DELTA 1 DEB

АктивенSSO
NORAD 8311·DEBRIS·🇺🇸 United States

Запущен Nov 15, 1974 с Vandenberg Space Force Base

Loading…

Ближайшие Пролёты (ближайшие 24 часа)

TLE

СвежийSource: Space-Track

Эпоха: Sep 14, 2026, 08:48 UTC

1 08311U 74089BU  26257.36734998 -.00000040  00000-0  45758-4 0  9990
2 08311 102.1724 232.6071 0036222 202.5433 329.3951 12.45553855356332

Отслеживайте THORAD DELTA 1 DEB в реальном времени с AllMySat

Download on the App Store